This is the latest recevied weather packets stored in our database for station/object WA0GMH-1. If no packets are shown the sender has not sent any weather packets the latest 10 day(s).
| Time | Temp. | Humidity | Pressure | Rain* | Wind** | Luminosity | Snow |
|---|---|---|---|---|---|---|---|
| 1777394149 | 9.44° C | 44% | 1018.7 hPa | 0 mm | - | - | - |
| 1777393747 | 9.44° C | 48% | 1018.7 hPa | 0 mm | - | - | - |
| 1777393345 | 9.44° C | 47% | 1018.8 hPa | 0 mm | - | - | - |
| 1777392942 | 9.44° C | 47% | 1018.8 hPa | 0 mm | - | - | - |
| 1777392541 | 8.89° C | 53% | 1018.6 hPa | 0 mm | - | - | - |
| 1777392138 | 8.89° C | 56% | 1018.6 hPa | 0 mm | - | - | - |
| 1777391736 | 8.33° C | 59% | 1018.6 hPa | 0 mm | - | - | - |
| 1777391333 | 8.33° C | 60% | 1018.5 hPa | 0 mm | - | - | - |
| 1777390931 | 8.33° C | 64% | 1018.4 hPa | 0 mm | - | - | - |
| 1777390529 | 7.78° C | 65% | 1018.6 hPa | 0 mm | - | - | - |
| 1777390127 | 7.78° C | 69% | 1018.5 hPa | 0 mm | - | - | - |
| 1777389724 | 7.22° C | 70% | 1018.5 hPa | 0 mm | - | - | - |
| 1777389323 | 7.22° C | 71% | 1018.3 hPa | 0 mm | - | - | - |
| 1777388920 | 6.67° C | 72% | 1018.3 hPa | 0 mm | - | - | - |
| 1777388518 | 6.67° C | 74% | 1018.3 hPa | 0 mm | - | - | - |
| 1777388115 | 6.67° C | 75% | 1018.5 hPa | 0 mm | - | - | - |
| 1777387714 | 6.67° C | 75% | 1018.6 hPa | 0 mm | - | - | - |
| 1777387311 | 6.11° C | 76% | 1018.6 hPa | 0 mm | - | - | - |
| 1777386909 | 6.11° C | 78% | 1018.4 hPa | 0 mm | - | - | - |
| 1777386506 | 5.56° C | 78% | 1018.3 hPa | 0 mm | - | - | - |
| 1777386104 | 5.56° C | 79% | 1018.4 hPa | 0 mm | - | - | - |
| 1777385702 | 5.56° C | 80% | 1018.4 hPa | 0 mm | - | - | - |
| 1777385300 | 5° C | 81% | 1018.5 hPa | 0 mm | - | - | - |
| 1777384897 | 5° C | 82% | 1018.4 hPa | 0 mm | - | - | - |
| 1777384495 | 5° C | 84% | 1018.2 hPa | 0 mm | - | - | - |
* Rain since midnight (hover to see other rain measurements)
** Current wind speed in m/s (hover to see current wind gust speed)